TimeEST,TemperatureF,Dew PointF,Humidity,Sea Level PressureIn,VisibilityMPH,Wind Direction,Wind SpeedMPH,Gust SpeedMPH,PrecipitationIn,Events,Conditions,WindDirDegrees,DateUTC
12:53 AM,10.9,7.0,84,30.20,10.0,Calm,Calm,-,N/A,,Clear,0,2013-01-06 05:53:00
1:53 AM,16.0,10.0,77,30.19,10.0,Calm,Calm,-,N/A,,Clear,0,2013-01-06 06:53:00
2:53 AM,16.0,10.0,77,30.18,10.0,SSW,3.5,-,N/A,,Mostly Cloudy,200,2013-01-06 07:53:00
3:53 AM,17.1,10.9,77,30.14,10.0,Calm,Calm,-,N/A,,Overcast,0,2013-01-06 08:53:00
4:53 AM,18.0,12.0,78,30.09,10.0,Calm,Calm,-,N/A,,Overcast,0,2013-01-06 09:53:00
5:50 AM,17.6,12.2,79,30.04,2.0,Calm,Calm,-,0.00,Snow,Light Snow,0,2013-01-06 10:50:00
5:53 AM,18.0,12.0,78,30.08,2.0,Calm,Calm,-,0.00,Snow,Light Snow,0,2013-01-06 10:53:00
6:13 AM,17.6,12.2,79,30.03,2.5,Calm,Calm,-,0.00,Snow,Light Snow,0,2013-01-06 11:13:00
6:25 AM,17.6,12.2,79,30.02,4.0,Calm,Calm,-,0.00,Snow,Light Snow,0,2013-01-06 11:25:00
6:53 AM,18.0,12.9,81,30.07,10.0,Calm,Calm,-,0.00,,Overcast,0,2013-01-06 11:53:00
7:53 AM,18.0,14.0,84,30.05,9.0,Calm,Calm,-,N/A,,Overcast,0,2013-01-06 12:53:00
8:53 AM,19.0,14.0,81,30.04,6.0,Calm,Calm,-,N/A,,Haze,0,2013-01-06 13:53:00
9:53 AM,21.0,16.0,81,30.04,5.0,Calm,Calm,-,N/A,,Haze,0,2013-01-06 14:53:00
10:40 AM,24.8,17.6,74,29.97,4.0,NNE,3.5,-,0.00,,Haze,30,2013-01-06 15:40:00
10:53 AM,24.1,18.0,77,30.01,4.0,Calm,Calm,-,0.00,,Haze,0,2013-01-06 15:53:00
11:53 AM,26.1,19.9,78,29.98,6.0,Calm,Calm,-,N/A,,Haze,0,2013-01-06 16:53:00
12:53 PM,28.9,21.9,75,29.96,10.0,NNE,3.5,-,N/A,,Overcast,20,2013-01-06 17:53:00
1:53 PM,30.0,23.0,75,29.94,10.0,Calm,Calm,-,N/A,,Overcast,0,2013-01-06 18:53:00
2:05 PM,32.0,23.0,69,29.90,10.0,Calm,Calm,-,N/A,,Overcast,0,2013-01-06 19:05:00
2:53 PM,32.0,21.9,66,29.93,9.0,NE,4.6,-,N/A,,Scattered Clouds,40,2013-01-06 19:53:00
3:53 PM,30.9,23.0,72,29.92,9.0,Calm,Calm,-,N/A,,Scattered Clouds,0,2013-01-06 20:53:00
4:53 PM,28.9,23.0,78,29.94,10.0,Calm,Calm,-,N/A,,Overcast,0,2013-01-06 21:53:00
5:01 PM,28.4,23.0,80,29.90,10.0,Calm,Calm,-,N/A,,Overcast,0,2013-01-06 22:01:00
5:12 PM,28.4,23.0,80,29.90,10.0,South,3.5,-,N/A,,Overcast,180,2013-01-06 22:12:00
5:53 PM,30.0,24.1,79,29.94,9.0,Calm,Calm,-,N/A,,Overcast,0,2013-01-06 22:53:00
6:53 PM,30.0,25.0,82,29.96,8.0,Calm,Calm,-,0.00,Snow,Light Snow,0,2013-01-06 23:53:00
7:53 PM,28.0,24.1,85,29.96,6.0,Calm,Calm,-,0.00,Snow,Light Snow,0,2013-01-07 00:53:00
8:53 PM,28.0,24.1,85,29.94,7.0,Calm,Calm,-,0.00,Snow,Light Snow,0,2013-01-07 01:53:00
9:53 PM,28.9,26.1,89,29.94,7.0,Calm,Calm,-,0.00,,Overcast,0,2013-01-07 02:53:00
10:53 PM,30.0,26.1,85,29.94,7.0,WSW,3.5,-,N/A,,Overcast,240,2013-01-07 03:53:00
11:53 PM,28.9,25.0,85,29.95,7.0,Calm,Calm,-,N/A,,Overcast,0,2013-01-07 04:53:00